[[{"header":{"parameterUnit":"m.s-1","parameterCategory":1,"la1":30.2992,"la2":30.254,"lo1":-89.0895,"lo2":-89.0443,"dy":0.0025,"dx":0.0025,"nx":19,"ny":19,"refTime":"2026-03-23T21:00:00:Z","depth":0,"parameterNumber":2,"parameterNumberName":"U-component_of_WINDS"},"data":[0,0,0,-5.7119,-5.7125,-5.7427,-5.7428,-5.7796,-5.7799,0,0,0,0,0,0,0,0,0,0,0,-5.7019,-5.7021,-5.7118,-5.7126,-5.7427,-5.7428,-5.7795,-5.7799,0,0,0,0,0,0,0,0,0,0,0,-5.7018,-5.702,-5.7023,-5.7127,-5.7426,-5.7428,-5.7794,-5.7573,0,0,0,0,0,0,0,0,0,0,-5.7283,-5.718,-5.702,-5.7023,-5.7128,-5.7426,-5.7428,-5.7563,-5.7587,-5.7652,0,-5.7706,0,-5.7758,-5.7822,-5.7824,0,0,0,-5.7133,-5.716,-5.7251,-5.7023,-5.7131,-5.7426,-5.7293,-5.7577,-5.7604,-5.7683,-5.7712,-5.7726,-5.7764,-5.7825,-5.7826,-5.8173,-5.8174,0,0,-5.7117,-5.7067,-5.7232,-5.7269,-5.7221,-5.7283,-5.7302,-5.7593,-5.762,-5.7713,-5.7735,-5.7771,-5.7827,-5.783,-5.8172,-5.8173,0,0,0,-5.7064,-5.7055,-5.7139,-5.7253,-5.7309,-5.7292,-5.7314,-5.7607,-5.7639,-5.7739,-5.7775,-5.7829,-5.7833,-5.8171,-5.8173,-5.8183,0,0,0,-5.7054,-5.7024,-5.7132,-5.7104,-5.7303,-5.7462,-5.7321,-5.7619,-5.7654,-5.7773,-5.7829,-5.7837,-5.8169,-5.8172,-5.818,-5.8195,0,0,0,-5.7003,-5.7018,-5.7058,-5.7101,-5.7229,-5.7458,-5.7507,-5.7628,-5.7675,-5.7824,-5.7838,-5.8169,-5.8171,-5.8178,-5.8191,-5.827,0,0,0,-5.6933,-5.7064,-5.7057,-5.7218,-5.7226,-5.7464,-5.7506,-5.7686,-5.7815,-5.7831,-5.817,-5.8172,-5.8177,-5.8188,-5.8267,-5.8324,-5.8345,0,0,-5.707,-5.7078,-5.7177,-5.718,-5.7406,-5.7422,-5.7652,-5.7817,-5.7877,-5.8071,-5.808,-5.8181,-5.8191,-5.8269,-5.8485,-5.85,0,0,0,-5.7203,-5.7273,-5.7344,-5.7465,-5.7596,-5.7708,-5.7845,-5.7907,-5.8074,-5.7967,-5.8235,-5.8242,-5.829,-5.832,-5.8333,-5.8377,-5.8185,-5.8185,-5.8185,-5.732,-5.7392,-5.756,-5.7668,-5.7785,-5.7926,-5.8027,-5.8135,-5.8172,-5.8235,-5.829,-5.8412,-5.8445,-5.8456,-5.85,-5.8331,-5.8331,-5.8331,-5.8331,-5.7524,-5.7632,-5.7682,-5.7861,-5.7937,-5.8089,-5.8231,-5.8253,-5.8405,-5.8376,-5.8422,-5.8379,-5.8471,-5.8513,-5.8333,-5.8333,-5.8332,-5.8332,-5.8332,-5.7604,-5.7668,-5.7743,-5.7927,-5.8061,-5.8168,-5.8312,-5.8377,-5.8439,-5.8485,-5.8549,-5.8549,-5.8554,-5.8512,-5.8513,-5.8513,-5.8513,-5.8514,-5.8514,-5.7655,-5.774,-5.7853,-5.8006,-5.8092,-5.8215,-5.8362,-5.8449,-5.8562,-5.8598,-5.8599,-5.8628,-5.8469,-5.8424,-5.8521,-5.852,-5.8519,-5.8518,-5.8518,-5.7825,-5.7798,-5.7972,-5.806,-5.8245,-5.8373,-5.8457,-5.863,-5.8712,-5.8781,-5.8804,-5.8677,-5.8689,-5.8679,-5.8642,-5.879,-5.879,-5.879,-5.879,-5.7888,-5.7904,-5.8097,-5.8232,-5.8374,-5.8468,-5.8662,-5.8779,-5.8895,-5.895,-5.894,-5.8899,-5.8886,-5.8907,-5.8892,-5.8858,-5.9057,-5.9057,-5.9058,-5.7995,-5.8028,-5.8179,-5.8294,-5.8445,-5.8573,-5.8758,-5.8912,-5.9038,-5.907,-5.8995,-5.8983,-5.8918,-5.8894,-5.8916,-5.8891,-5.8831,0,0]},{"header":{"parameterUnit":"m.s-1","parameterCategory":1,"la1":30.2992,"la2":30.254,"lo1":-89.0895,"lo2":-89.0443,"dy":0.0025,"dx":0.0025,"nx":19,"ny":19,"refTime":"2026-03-23T21:00:00:Z","depth":0,"parameterNumber":3,"parameterNumberName":"V-component_of_WINDS"},"data":[0,0,0,2.5237,2.524,2.5374,2.5375,2.5529,2.553,0,0,0,0,0,0,0,0,0,0,0,2.5188,2.5189,2.5237,2.524,2.5374,2.5375,2.5529,2.553,0,0,0,0,0,0,0,0,0,0,0,2.5188,2.5189,2.519,2.5241,2.5374,2.5375,2.5528,2.5433,0,0,0,0,0,0,0,0,0,0,2.5306,2.5251,2.5188,2.519,2.5241,2.5374,2.5375,2.5429,2.5439,2.5461,0,2.5479,0,2.5507,2.5539,2.554,0,0,0,2.5247,2.5242,2.5288,2.519,2.5243,2.5374,2.5316,2.5435,2.5446,2.5475,2.5482,2.5488,2.551,2.554,2.5541,2.5653,2.5654,0,0,2.5239,2.5206,2.528,2.5295,2.5274,2.5311,2.532,2.5442,2.5446,2.5482,2.5492,2.5512,2.5541,2.5542,2.5653,2.5653,0,0,0,2.5214,2.5201,2.5244,2.5288,2.5314,2.5315,2.5325,2.5441,2.5458,2.5493,2.5514,2.5542,2.5544,2.5653,2.5653,2.5634,0,0,0,2.521,2.5186,2.524,2.5221,2.5311,2.5379,2.5321,2.5449,2.5464,2.5513,2.5542,2.5545,2.5653,2.5653,2.5634,2.563,0,0,0,2.5182,2.5183,2.5199,2.5219,2.5276,2.5378,2.5402,2.5454,2.5477,2.554,2.5545,2.5653,2.5653,2.5634,2.563,2.5652,0,0,0,2.5143,2.5177,2.5198,2.5244,2.5274,2.5366,2.5402,2.5471,2.5523,2.5543,2.5653,2.5653,2.5634,2.563,2.5651,2.5664,2.5666,0,0,2.5167,2.5178,2.5209,2.5232,2.5312,2.5348,2.5425,2.5502,2.5536,2.5612,2.5615,2.5634,2.563,2.5652,2.569,2.5691,0,0,0,2.5205,2.5226,2.5255,2.5304,2.5367,2.5421,2.549,2.552,2.5587,2.5569,2.5649,2.5647,2.5661,2.5669,2.567,2.5685,2.5655,2.5655,2.5655,2.5188,2.5236,2.529,2.5354,2.5402,2.5477,2.552,2.5572,2.5601,2.562,2.5642,2.566,2.5667,2.5669,2.5684,2.5652,2.5652,2.5652,2.5652,2.5228,2.5266,2.5311,2.5379,2.5429,2.5486,2.5561,2.5581,2.5641,2.5645,2.566,2.5661,2.5669,2.5684,2.5651,2.5652,2.5652,2.5652,2.5652,2.5222,2.5249,2.5288,2.5369,2.5426,2.549,2.5548,2.559,2.5629,2.5644,2.5674,2.5674,2.568,2.5655,2.5656,2.5656,2.5656,2.5656,2.5656,2.5201,2.5246,2.529,2.5364,2.5405,2.5463,2.5542,2.5582,2.5638,2.5664,2.5664,2.5693,2.5661,2.5653,2.5657,2.5657,2.5657,2.5656,2.5656,2.5223,2.5226,2.5295,2.5336,2.5429,2.5485,2.554,2.562,2.5659,2.5687,2.5715,2.5685,2.5698,2.5697,2.569,2.5704,2.5704,2.5704,2.5704,2.5218,2.5231,2.5314,2.5377,2.5444,2.5504,2.5581,2.5645,2.571,2.5738,2.5743,2.5737,2.5735,2.575,2.5748,2.5742,2.5769,2.5769,2.5769,2.5235,2.5257,2.5315,2.5383,2.546,2.5525,2.5601,2.5672,2.5746,2.5773,2.5761,2.5759,2.5751,2.5745,2.5768,2.5764,2.5755,0,0]}]]